Home   Weather   Arden-Arcade   Past weeks

Flag for USA Past Weather in Arden-Arcade, California, USA — Yesterday and Last 2 Weeks

Now
63 °F

Sunny.


Feels Like: 63 °F
Forecast: 61 / 91 °F
Wind: 5 mph from Southeast

Location: Mather Field

Current Time: Sep 28, 2016 at 8:38:36 AM

Latest Report: Sep 28, 2016 at 7:45 AM


Visibility: 10 mi

Pressure: 29.86 "Hg

Humidity: 52%

Dew Point: 45 °F

Location of Arden-ArcadeLocation

Past Weather in Arden-Arcade — Graph

°F

Arden-Arcade Temperature Yesterday

Maximum temperature yesterday: 97 °F (at 4:45 PM)
Minimum temperature yesterday: 59 °F (at 6:45 AM)
Average temperature yesterday: 77 °F

High & Low Weather Summary for the Past Weeks

 TemperatureHumidityPressure
High99 °F (Sep 19, 2:59 PM)94% (Sep 13, 6:45 AM)30.13 "Hg (Sep 13, 6:45 AM)
Low46 °F (Sep 22, 5:51 AM)9% (Sep 20, 5:45 PM)29.77 "Hg (Sep 27, 4:45 PM)
Average71 °F43%29.95 "Hg
* Reported Sep 13 6:45 AM — Sep 28 6:45 AM, Arden-Arcade, Weather by CustomWeather, © 2016

Note: Actual official high and low records may vary slightly from our data, if they occured in-between our weather recording intervals... More about our weather records

Advertising

Arden-Arcade Weather History for the Previous 24 Hours

Scroll right to see more
 ConditionsComfort  
Time TempWeatherWind HumidityBarometerVisibility
6:45 AM
Wed, Sep 28
59 °FClear.No wind59%29.85 "Hg10 mi
4:45 AM61 °FClear.No wind52%29.82 "Hg10 mi
3:45 AM61 °FClear.No wind48%29.82 "Hg10 mi
2:45 AM63 °FClear.3 mph49%29.82 "Hg10 mi
11:30 PM
Tue, Sep 27
68 °FClear.6 mph43%29.81 "Hg10 mi
10:45 PM68 °FClear.6 mph46%29.81 "Hg10 mi
9:45 PM75 °FClear.5 mph34%29.80 "Hg10 mi
8:45 PM79 °FClear.5 mph32%29.79 "Hg10 mi
7:45 PM81 °FClear.6 mph30%29.77 "Hg10 mi
6:55 PM84 °FClear.7 mph25%29.77 "Hg10 mi
5:45 PM95 °FSunny.No wind15%29.77 "Hg10 mi
4:45 PM97 °FSunny.3 mph13%29.77 "Hg10 mi
3:57 PM95 °FSunny.6 mph14%29.79 "Hg10 mi
2:50 PM95 °FSunny.5 mph13%29.81 "Hg10 mi
1:50 PM93 °FSunny.3 mph14%29.84 "Hg10 mi
12:50 PM90 °FSunny.No wind16%29.86 "Hg10 mi
10:59 AM84 °FSunny.6 mph20%29.91 "Hg10 mi
9:45 AM77 °FSunny.No wind28%29.92 "Hg10 mi
8:50 AM72 °FSunny.No wind33%29.91 "Hg10 mi
Weather by CustomWeather, © 2016

See weather overviewHow to use our weather pages